Regional Weather Roundup
Issued by NWS

Home | Current Version | Previous Version | Graphics & Text | Print | Product List | Glossary On
Versions: 1 2 3 4 5 6 7 8 9 10 11 12 13 14 15 16 17 18 19 20 21 22 23 24 25 26 27 28 29 30 31 32 33 34 35 36 37 38 39 40 41 42 43 44 45 46 47 48 49 50
000
ASUS43 KBIS 211320
RWRND

NORTH DAKOTA REGIONAL WEATHER ROUNDUP
NATIONAL WEATHER SERVICE BISMARCK ND
800 AM CDT SUN SEP 21 2014

NOTE: "FAIR" INDICATES FEW OR NO CLOUDS BELOW 12,000 FEET WITH NO
SIGNIFICANT WEATHER AND/OR OBSTRUCTIONS TO VISIBILITY.


NDZ001>003-009>011-017-211400-
NORTHWEST NORTH DAKOTA

CITY           SKY/WX    TMP DP  RH WIND       PRES   REMARKS
WILLISTON      CLEAR     38  34  85 SW6       30.28R
MINOT          CLEAR     47  40  76 W14       30.23R
MINOT AFB      CLEAR     44  42  93 W7        30.23R
$$

NDZ018>021-031>035-040>046-211400-
SOUTHWEST NORTH DAKOTA

CITY           SKY/WX    TMP DP  RH WIND       PRES   REMARKS
BISMARCK       CLEAR     47  42  83 W6        30.26R
DICKINSON      CLEAR     42  35  76 W9        30.28R
GARRISON         N/A     44  40  85 N7        30.24R
HETTINGER ARPT CLEAR     34  31  88 NW3       30.31R
$$

NDZ004>008-012>016-024-026-027-054-211400-
NORTHEAST NORTH DAKOTA

CITY           SKY/WX    TMP DP  RH WIND       PRES   REMARKS
GRAND FORKS    PTCLDY    50  47  89 NW8       30.14R
GRND FRKS AFB  CLEAR     49  49  99 NW9       30.16R
DEVILS LAKE    CLEAR     48  43  81 NW8       30.18R
$$

NDZ022-023-025-028>030-036>039-047>053-211400-
SOUTHEAST NORTH DAKOTA

CITY           SKY/WX    TMP DP  RH WIND       PRES   REMARKS
FARGO          CLEAR     51  48  89 NW8       30.14R
JAMESTOWN      CLEAR     48  45  89 NW7       30.20R
$$




USA.gov is the U.S. government's official web portal to all federal, state and local government web resources and services.